Weather History for Tampa Macdill AFB, FL

Change the Weather History Date:

Sunday, May 26, 2013

  Actual Average Record
Temperature  
Mean Temperature 74 °F -  
Max Temperature 87 °F 86 °F 95 °F (2012)
Min Temperature 62 °F 70 °F 62 °F (2013)
Cooling Degree Days 10    
Growing Degree Days 24 (Base 50)    
Moisture  
Dew Point 58 °F    
Average Humidity 54    
Maximum Humidity 90    
Minimum Humidity 30    
Precipitation  
Precipitation 0.00 in - - ()
Sea Level Pressure  
Sea Level Pressure 30.18 in    
Wind  
Wind Speed 10 mph (East)    
Max Wind Speed 16 mph    
Max Gust Speed -    
Visibility 10 miles    
Events      
Averages and records for this station are not official NWS values.
T = Trace of Precipitation, MM = Missing Value Source: NWS Daily Summary

Daily Weather History Graph

Daily Weather History Graph

Search for Another Location

Airport:

Trip Planner

Search our weather history database for the weather conditions in past years. The results will help you decide how hot, cold, wet, or windy it might be!

Date:

Astronomy

May. 26, 2013 Rise Set
Actual Time 6:35 AM EDT 8:18 PM EDT
Civil Twilight 6:09 AM EDT 8:44 PM EDT
Nautical Twilight 5:38 AM EDT 9:16 PM EDT
Astronomical Twilight 5:05 AM EDT 9:49 PM EDT
Moon 10:07 PM EDT (5/26) 8:02 AM EDT (5/26)
Length of Visible Light 14h 35m
Length of Day
13h 43m
Waning Gibbous, 97% of the Moon is Illuminated
May 26
Waning Gibbous
May 31
Last Quarter
Jun 8
New
Jun 16
First Quarter
Jun 23
Full

Hourly Weather History & Observations

Time (EDT) Temp. Heat Index Dew Point Humidity Pressure Visibility Wind Dir Wind Speed Gust Speed Precip Events Conditions
12:58 AM 73.4 °F - 63.3 °F 71% 30.20 in 10.0 mi East 16.1 mph - N/A   Clear
1:58 AM 71.6 °F - 63.1 °F 75% 30.19 in 10.0 mi ESE 8.1 mph - N/A   Clear
2:58 AM 70.5 °F - 62.4 °F 75% 30.18 in 10.0 mi ESE 9.2 mph - N/A   Clear
3:58 AM 69.3 °F - 63.0 °F 80% 30.18 in 10.0 mi East 6.9 mph - N/A   Clear
4:58 AM 67.3 °F - 62.6 °F 85% 30.18 in 10.0 mi ESE 4.6 mph - N/A   Clear
5:58 AM 66.2 °F - 63.0 °F 89% 30.18 in 10.0 mi ESE 6.9 mph - N/A   Clear
6:58 AM 62.6 °F - 59.5 °F 90% 30.20 in 10.0 mi East 8.1 mph - N/A   Clear
7:58 AM 70.7 °F - 65.5 °F 83% 30.20 in 10.0 mi East 9.2 mph - N/A   Clear
8:58 AM 73.8 °F - 63.5 °F 70% 30.22 in 10.0 mi East 10.4 mph - N/A   Clear
9:58 AM 76.3 °F - 61.2 °F 59% 30.23 in 10.0 mi East 9.2 mph - N/A   Clear
10:58 AM 79.0 °F - 61.3 °F 55% 30.23 in 10.0 mi East 9.2 mph - N/A   Clear
11:58 AM 81.1 °F 81.6 °F 59.5 °F 48% 30.22 in 10.0 mi East 9.2 mph - N/A   Clear
12:58 PM 83.1 °F 82.9 °F 58.3 °F 43% 30.21 in 10.0 mi Variable 4.6 mph - N/A   Scattered Clouds
1:58 PM 85.6 °F 84.3 °F 55.8 °F 36% 30.20 in 10.0 mi ENE 8.1 mph - N/A   Overcast
2:58 PM 86.2 °F 84.7 °F 55.6 °F 35% 30.19 in 10.0 mi ENE 11.5 mph - N/A   Scattered Clouds
3:17 PM 86.0 °F 84.5 °F 55.4 °F 35% 30.17 in 10.0 mi Variable 6.9 mph - N/A   Light Drizzle
3:26 PM 87.8 °F 85.7 °F 53.6 °F 31% 30.17 in 10.0 mi ENE 10.4 mph - N/A   Scattered Clouds
3:58 PM 86.7 °F - 52.0 °F 30% 30.17 in 10.0 mi ESE 9.2 mph - 0.00 in   Clear
4:58 PM 86.9 °F - 52.7 °F 31% 30.15 in 10.0 mi East 9.2 mph - N/A   Clear
5:41 PM 86.0 °F - 51.8 °F 31% 30.13 in 10.0 mi East 5.8 mph - N/A   Light Drizzle
5:51 PM 86.0 °F 84.2 °F 53.6 °F 33% 30.13 in 10.0 mi East 9.2 mph - N/A   Clear
5:58 PM 85.3 °F 83.6 °F 53.8 °F 34% 30.14 in 10.0 mi East 11.5 mph - 0.00 in   Clear
6:58 PM 83.1 °F - 50.2 °F 32% 30.13 in 10.0 mi ESE 8.1 mph - N/A   Clear
7:58 PM 81.9 °F - 52.2 °F 36% 30.14 in 10.0 mi East 10.4 mph - N/A   Clear
8:58 PM 77.0 °F - 54.5 °F 46% 30.14 in 10.0 mi East 8.1 mph - N/A   Clear
9:58 PM 77.9 °F - 61.3 °F 57% 30.16 in 10.0 mi ESE 13.8 mph - N/A   Clear
10:58 PM 75.6 °F - 62.6 °F 64% 30.18 in 10.0 mi ESE 12.7 mph - N/A   Clear
11:58 PM 73.6 °F - 63.3 °F 70% 30.19 in 10.0 mi ESE 10.4 mph - N/A   Clear